EHI
0 0 0 0 0 1 1 0 0 0 1 0 0 0 0 0 0 0 0 1 2 1 0 0 0 0 0 0 1 3 3 3 2 1 0 0 0 1 2 2 2 1 0
0 0 0 1 1 2 2 1 0 0 1 0 0 0 0 0 0 0 0 1 1 1 0 0 0 0 0 0 2 3 4 3 1 0 0 0 0 0 1 1 1 1 0
0 0 0 1 2 3 3 2 1 0 0 0 0 0 0 0 0 0 0 0 0 0 0 1 0 0 0 0 1 3 4 3 1 0 0 0 0 0 0 0 0 0 0
0 0 0 1 3 3 3 3 2 1 0 0 0 0 0 0 0 0 0 0 0 0 0 0 0 0 0 0 1 2 3 2 1 1 0 0 0 0 0 0 0 0 0
0 0 0 1 2 3 3 3 3 2 2 2 1 0 0 0 0 0 0 0 0 0 0 0 0 0 0 0 0 1 2 1 0 0 0 0 0 0 0 0 0 0 0
0 0 0 0 1 2 3 3 3 3 3 3 2 1 0 1 0 0 0 0 0 0 0 0 0 0 0 0 0 0 0 0 0 0 0 0 0 0 0 0 0 0 0
0 0 0 1 1 1 2 3 4 4 4 4 3 1 0 0 0 0 0 0 0 0 0 0 0 0 0 0 0 0 0 0 0 0 0 0 0 0 0 0 0 0 0
0 0 1 3 3 2 1 1 3 4 4 4 3 1 0 0 0 0 0 0 0 0 0 0 0 0 0 0 0 0 1 1 0 0 0 0 0 0 0 0 0 0 0
0 0 1 3 3 2 1 0 1 2 2 2 2 1 0 0 0 0 0 0 0 1 1 0 0 0 0 0 0 0 0 1 1 0 0 0 0 0 0 0 0 0 0
0 0 1 2 2 1 0 0 0 0 0 1 1 0 0 0 0 0 0 0 0 1 1 0 0 0 0 0 0 0 0 0 0 0 0 0 0 0 0 0 0 0 0
0 0 0 1 1 0 0 0 0 0 0 0 0 0 0 0 0 0 0 0 0 1 1 0 0 0 0 0 0 0 0 0 0 0 0 0 0 0 0 0 0 0 1
0 0 0 0 0 0 0 0 0 0 0 0 0 0 0 0 0 0 0 0 0 0 0 0 0 0 0 0 0 0 0 0 0 0 0 0 0 0 0 0 0 0 1
0 0 0 0 0 0 0 0 0 0 0 0 0 0 0 0 0 0 1 1 0 0 0 0 0 0 0 0 0 0 0 0 0 0 0 0 0 0 0 0 0 0 1
0 0 0 0 0 0 0 0 0 0 0 0 0 0 0 0 0 0 1 1 0 0 0 0 0 0 0 0 0 0 0 0 0 0 0 0 0 0 0 0 0 0 0
0 0 0 0 0 0 0 0 0 0 0 0 0 0 0 0 0 0 0 0 0 0 0 0 0 0 0 0 0 0 0 0 0 0 0 0 0 0 0 0 0 0 0
0 0 0 0 0 0 0 0 0 0 0 0 0 0 0 0 0 0 0 0 0 0 0 0 0 0 0 0 0 0 0 0 0 0 0 0 0 0 1 1 0 0 0
0 0 0 0 0 0 0 0 0 0 0 0 0 0 0 0 0 0 0 0 0 0 0 0 0 0 0 0 0 0 0 0 0 0 0 0 0 0 1 2 1 0 0
0 0 0 0 0 0 0 0 0 0 0 0 0 0 0 0 0 0 0 0 0 0 0 0 0 0 0 0 0 0 0 0 0 0 0 0 0 0 1 1 1 1 1
0 0 0 0 0 0 0 0 0 0 0 0 0 0 0 0 0 0 0 0 0 0 0 0 0 0 0 0 0 0 0 0 0 0 0 0 0 0 0 0 0 0 0
0 0 0 0 0 0 0 0 0 0 0 0 0 0 0 0 0 0 0 0 0 0 0 0 0 0 0 0 0 0 0 0 0 0 0 0 0 0 0 0 0 0 0
0 0 0 0 0 0 0 0 0 0 0 0 0 0 0 0 0 0 0 0 0 0 0 0 0 0 0 0 0 0 0 0 0 0 0 0 0 0 0 0 0 0 0
0 0 0 0 1 1 1 0 0 0 0 0 0 0 0 0 0 0 0 0 0 0 0 0 0 0 0 0 0 0 0 0 0 0 0 0 0 0 0 0 0 0 0
0 0 0 0 1 2 1 1 0 0 0 0 0 0 0 0 0 0 0 0 0 0 0 0 0 0 0 0 0 0 0 0 0 0 0 0 0 0 0 0 0 0 0
0 0 0 0 1 2 3 2 1 0 0 0 0 0 0 0 0 0 0 0 0 0 0 0 0 0 0 0 0 0 0 0 0 0 0 0 0 0 0 0 0 0 0
1 1 0 0 1 3 4 3 1 0 0 0 0 0 0 0 0 0 0 0 0 0 0 0 0 0 0 0 0 0 0 0 0 0 0 0 0 0 0 0 0 0 0
0 1 0 0 1 3 4 3 1 0 0 0 0 0 0 0 0 0 0 0 0 0 0 0 0 0 0 0 0 0 0 0 0 0 0 0 0 0 0 0 0 0 0
Wind_Speed
4 5 8 8 9 10 11 11 11 11 11 11 11 11 11 10 10 9 9 9 8 8 8 7 7 7 8 8 9 9 9 10 10 10 11 11 11 10 9 7 5 7 10
3 5 7 8 10 10 10 11 11 11 11 11 11 11 11 11 10 10 10 10 9 8 8 8 8 8 9 8 9 9 10 10 10 10 9 10 11 11 11 9 8 7 10
4 5 6 9 10 10 10 11 11 11 11 11 11 11 11 11 11 10 10 10 10 9 9 9 9 9 9 9 9 9 10 10 9 8 5 7 9 11 11 11 10 10 10
5 5 7 9 10 10 11 11 11 12 12 11 12 12 12 12 12 11 11 11 11 10 10 10 10 9 9 9 9 9 9 9 8 5 5 7 8 11 10 10 10 10 10
6 6 8 9 10 10 11 11 11 11 11 11 12 12 12 12 12 13 12 12 11 11 11 11 10 10 9 9 9 9 9 8 6 5 7 7 7 10 10 10 10 10 9
6 6 8 9 10 10 10 10 11 11 11 11 12 13 13 13 13 12 12 12 12 12 12 11 11 11 10 9 9 9 8 6 4 6 6 6 7 10 10 9 9 9 9
6 6 8 9 9 10 10 10 11 11 11 11 12 12 12 12 12 12 12 12 12 12 12 12 11 11 11 10 9 9 8 5 5 6 6 7 9 10 9 9 9 9 9
5 6 7 9 9 10 10 10 11 11 11 11 12 12 12 12 12 12 12 11 11 11 11 11 11 11 11 10 10 9 8 5 5 6 7 8 10 10 10 10 10 10 9
5 5 5 6 7 8 9 10 10 10 11 11 11 11 11 11 11 11 11 11 10 10 11 11 11 10 11 11 11 10 9 7 5 5 7 7 10 10 10 10 10 10 10
5 5 5 5 6 6 7 9 9 10 10 9 10 10 9 9 9 10 10 11 10 11 11 11 10 10 10 10 9 9 7 4 7 7 6 8 10 10 11 10 9 9 9
4 4 4 5 5 6 6 6 6 7 7 6 7 7 5 5 7 7 12 11 11 11 11 10 10 9 7 8 8 6 3 4 6 6 6 10 10 10 10 9 9 8 8
4 4 3 4 4 5 4 4 3 4 4 5 5 6 5 5 5 6 9 10 10 9 9 9 8 5 3 4 6 3 3 5 5 5 7 10 9 9 9 9 9 8 8
3 3 3 3 4 4 3 3 3 3 3 4 6 6 5 4 4 4 4 5 5 5 5 5 4 4 5 5 4 4 5 4 4 4 7 10 9 8 9 9 9 9 9
3 3 3 3 3 3 3 3 3 3 3 4 5 6 4 3 4 4 4 4 4 3 4 4 4 5 6 6 6 6 6 4 4 4 6 9 9 9 9 9 9 9 9
3 3 3 2 2 2 3 2 3 3 3 4 4 4 5 4 4 4 4 4 4 4 4 4 4 5 5 6 6 6 6 6 6 5 5 9 9 9 9 9 9 9 10
3 3 3 3 2 2 2 2 3 3 3 4 4 4 5 4 4 4 4 4 4 4 4 3 4 4 4 4 5 6 6 5 5 5 5 6 10 10 9 9 9 9 9
3 3 4 3 2 2 3 4 3 3 3 3 3 4 5 5 4 4 4 4 4 4 4 4 4 3 4 4 5 5 5 5 4 5 5 4 5 8 9 10 9 9 9
3 4 4 2 2 3 3 3 3 3 3 3 3 3 4 5 5 4 3 4 4 3 3 3 3 3 3 3 3 3 3 3 4 5 4 4 4 4 6 9 9 9 9
3 4 4 3 2 3 3 3 3 3 3 3 3 3 3 4 4 4 3 3 4 3 3 3 3 3 3 3 2 2 3 3 3 3 4 4 4 4 4 5 7 8 8
4 4 4 3 2 3 2 2 3 3 2 2 2 3 3 3 4 3 2 4 4 3 3 3 3 3 2 2 1 2 2 2 2 3 3 3 3 4 4 4 3 4 7
4 4 4 3 3 2 2 1 1 1 1 2 2 3 3 3 3 3 2 3 3 3 3 4 3 3 3 2 1 1 2 2 2 2 2 2 3 3 3 3 3 2 2
5 5 4 4 3 3 2 1 1 1 1 2 1 2 2 2 2 2 2 2 2 2 3 3 3 2 2 2 2 1 0 2 2 2 2 2 2 2 3 3 3 3 3
6 6 5 5 4 4 3 2 2 2 1 1 1 1 1 2 2 2 2 2 2 2 2 2 2 2 2 2 3 3 2 1 1 1 2 2 3 3 3 3 3 3 3
6 6 6 6 5 4 4 4 4 2 2 1 0 1 1 1 2 2 1 1 1 1 1 1 2 2 2 2 1 2 3 3 2 0 1 2 2 2 2 2 3 3 3
6 5 5 5 5 5 4 4 4 3 2 1 1 1 0 1 1 1 1 1 1 1 1 1 1 2 1 2 2 2 1 1 3 2 1 2 2 2 2 2 2 2 3
4 5 5 5 5 5 5 5 5 4 3 2 1 1 0 0 0 1 1 1 1 1 2 2 1 1 1 1 2 1 1 2 2 2 2 2 2 2 2 2 2 2 2
Wind_Direction
25 27 25 29 41 48 55 60 60 59 60 60 62 63 62 61 60 59 59 66 75 76 74 74 76 78 77 72 69 70 70 71 69 66 66 66 65 66 68 72 83 88 83
33 42 40 37 48 50 54 59 58 59 60 59 59 60 59 57 58 61 63 65 70 72 74 74 75 78 75 73 72 71 71 70 68 69 74 79 72 68 66 61 61 71 77
54 53 59 47 50 53 54 60 58 58 59 58 57 56 57 57 57 58 61 63 65 69 71 75 78 79 77 76 74 72 70 70 67 67 76 81 80 70 69 67 69 73 72
65 59 57 52 52 54 57 59 56 56 57 58 57 57 57 57 57 59 60 61 63 65 68 72 74 77 77 77 75 72 71 69 65 61 69 65 70 71 67 67 69 72 73
71 63 61 53 55 56 57 57 57 58 58 59 59 58 57 57 57 57 58 59 60 62 64 68 68 70 73 76 77 75 72 71 70 65 63 62 64 67 67 68 69 71 72
79 70 66 55 57 56 58 58 59 58 57 59 60 58 57 56 56 56 58 58 59 63 63 62 64 64 66 72 75 76 72 68 73 67 64 65 66 67 66 68 69 70 70
80 74 73 61 59 59 58 58 59 59 58 59 59 59 56 54 55 56 58 58 60 62 62 61 61 61 63 68 71 70 67 55 60 68 67 66 64 64 65 67 69 69 69
82 78 81 75 67 62 59 59 60 61 61 60 58 58 57 55 54 56 56 57 61 64 64 63 63 63 61 65 69 65 56 33 70 67 68 67 63 64 65 63 63 65 68
85 81 76 81 86 80 65 59 60 60 61 59 58 56 56 56 55 55 54 54 60 64 66 65 66 66 65 65 67 65 57 36 51 61 68 67 64 63 64 62 59 61 65
95 85 77 76 76 78 80 69 63 63 60 60 59 55 57 64 64 57 56 53 59 63 66 66 66 66 67 68 67 66 58 48 54 60 59 67 62 61 61 60 59 60 60
97 87 78 74 72 73 74 78 79 77 66 68 71 63 54 57 59 62 56 55 60 64 64 64 64 68 76 80 71 65 55 49 57 55 57 61 60 61 59 57 57 55 54
108 92 81 76 73 73 70 72 62 65 63 53 52 53 50 55 56 55 70 62 62 66 72 65 65 78 65 72 82 73 55 55 57 61 64 58 58 59 58 56 54 55 54
113 101 88 77 74 74 74 68 60 58 59 55 49 52 49 54 59 52 59 68 63 58 58 63 60 53 55 57 54 58 52 49 53 56 63 55 54 57 59 57 55 56 57
122 105 94 79 74 70 74 74 73 67 59 57 51 53 52 49 49 50 49 48 48 49 43 39 39 49 54 56 58 57 55 49 52 57 62 51 48 51 57 57 55 57 58
125 116 103 92 71 68 76 83 84 71 60 63 55 53 56 52 51 50 51 49 45 44 44 39 40 47 51 51 52 52 51 48 48 50 63 56 48 49 56 59 61 61 59
137 122 112 104 83 67 81 97 82 75 73 64 57 53 59 56 52 47 51 47 42 38 39 40 47 47 52 50 48 47 46 46 48 50 54 66 57 52 52 54 58 58 56
145 128 117 108 95 78 74 82 82 78 73 68 61 51 57 56 53 50 47 49 41 37 39 39 47 47 56 56 52 45 44 38 41 49 48 47 63 61 53 49 51 53 52
157 138 126 119 113 95 84 86 80 78 71 69 66 53 54 57 57 53 47 45 39 39 38 43 36 45 49 45 48 46 48 42 37 44 50 52 48 53 61 51 46 44 44
167 155 143 139 136 117 100 96 82 77 72 66 65 57 50 54 53 61 47 38 41 41 39 40 44 38 46 40 52 51 49 49 39 39 47 45 47 45 52 65 53 43 38
168 160 153 147 145 127 123 107 97 82 71 66 64 61 51 50 51 56 56 45 42 43 37 37 48 47 40 17 50 66 58 63 53 39 34 39 38 45 42 43 48 62 45
173 166 158 157 154 145 138 140 127 108 90 78 64 61 60 57 53 54 46 49 38 43 37 34 34 46 41 5 327 104 113 88 58 51 31 28 39 38 39 40 26 22 51
181 176 177 176 168 159 152 157 135 113 94 84 71 61 60 57 55 46 36 46 43 39 40 36 27 13 42 15 332 307 177 139 82 51 38 29 34 38 32 30 22 21 5
192 188 185 185 177 168 158 152 139 130 133 118 97 66 36 37 47 38 26 33 32 28 34 23 15 6 1 21 6 341 328 360 13 74 39 30 25 24 23 19 10 13 12
199 195 193 182 180 171 165 168 167 162 144 126 107 113 80 52 43 31 22 8 20 20 19 2 7 345 334 347 14 358 350 354 310 327 80 31 14 11 7 5 1 2 2
197 191 194 182 179 176 173 175 189 180 156 131 129 105 65 55 33 25 21 359 349 351 346 352 354 335 328 326 336 338 342 317 303 301 313 341 347 355 352 346 347 354 357
191 187 187 181 179 184 186 186 190 185 171 160 158 161 220 68 353 1 351 342 336 337 338 336 323 306 295 302 301 311 320 315 318 310 302 316 329 338 333 347 341 1 353